Weather History for Claremore, OK

Change the Weather History Date:

Sunday, October 20, 2013

  Actual Average (KTUL) Record (KTUL)
Temperature  
Mean Temperature 54 °F 61 °F  
Max Temperature 68 °F 72 °F 91 °F (1979)
Min Temperature 41 °F 49 °F 30 °F (1976)
Degree Days  
Heating Degree Days 10 6  
Month to date heating degree days 81  
Since 1 July heating degree days 105  
Cooling Degree Days 0 1  
Month to date cooling degree days 51  
Year to date cooling degree days 2016  
Growing Degree Days 4 (Base 50)    
Moisture  
Dew Point 40 °F    
Average Humidity 65    
Maximum Humidity 93    
Minimum Humidity 30    
Precipitation  
Precipitation 0.00 in 0.14 in 4.96 in (1971)
Month to date precipitation 2.53  
Year to date precipitation 34.27  
Sea Level Pressure  
Sea Level Pressure 29.98 in    
Wind  
Wind Speed 7 mph (South)    
Max Wind Speed 20 mph    
Max Gust Speed 25 mph    
Visibility 10 miles    
Events      
T = Trace of Precipitation, MM = Missing Value Source: NWS Daily Summary

Daily Weather History Graph

Daily Weather History Graph

Search for Another Location

Airport:

Trip Planner

Search our weather history database for the weather conditions in past years. The results will help you decide how hot, cold, wet, or windy it might be!

Date:

Astronomy

Oct. 20, 2013 Rise Set
Actual Time 7:33 AM CDT 6:39 PM CDT
Civil Twilight 7:07 AM CDT 7:05 PM CDT
Nautical Twilight 6:37 AM CDT 7:35 PM CDT
Astronomical Twilight 6:07 AM CDT 8:04 PM CDT
Moon 7:51 PM CDT (10/20) 9:09 AM CDT (10/20)
Length of Visible Light 11h 57m
Length of Day
11h 05m
Full, 97% of the Moon is Illuminated
Oct 20
Full
Oct 26
Last Quarter
Nov 3
New
Nov 9
First Quarter
Nov 17
Full

Hourly Weather History & Observations

Time (CDT) Temp. Windchill Dew Point Humidity Pressure Visibility Wind Dir Wind Speed Gust Speed Precip Events Conditions
12:15 AM 42.8 °F - 39.2 °F 87% 30.05 in 10.0 mi Calm Calm - N/A   Clear
12:35 AM 42.8 °F - 39.2 °F 87% 30.05 in 10.0 mi Calm Calm - N/A   Clear
12:55 AM 42.8 °F - 39.2 °F 87% 30.04 in 10.0 mi Calm Calm - N/A   Clear
1:15 AM 42.8 °F 40.1 °F 39.2 °F 87% 30.04 in 10.0 mi SSE 4.6 mph - N/A   Clear
1:35 AM 42.8 °F 39.3 °F 39.2 °F 87% 30.04 in 10.0 mi SSE 5.8 mph - N/A   Clear
1:55 AM 42.8 °F 38.0 °F 41.0 °F 93% 30.03 in 10.0 mi SSE 8.1 mph - N/A   Clear
2:15 AM 42.8 °F 38.6 °F 39.2 °F 87% 30.03 in 10.0 mi SSE 6.9 mph - N/A   Clear
2:35 AM 42.8 °F 38.0 °F 39.2 °F 87% 30.03 in 10.0 mi SSE 8.1 mph - N/A   Clear
2:55 AM 42.8 °F 38.0 °F 39.2 °F 87% 30.03 in 10.0 mi SSE 8.1 mph - N/A   Clear
3:15 AM 42.8 °F 38.0 °F 39.2 °F 87% 30.02 in 10.0 mi SSE 8.1 mph - N/A   Clear
3:35 AM 41.0 °F 36.4 °F 37.4 °F 87% 30.02 in 10.0 mi SSE 6.9 mph - N/A   Clear
3:55 AM 41.0 °F 37.1 °F 37.4 °F 87% 30.01 in 10.0 mi SSE 5.8 mph - N/A   Clear
4:15 AM 41.0 °F 37.1 °F 37.4 °F 87% 30.00 in 10.0 mi SSE 5.8 mph - N/A   Clear
4:35 AM 41.0 °F 37.1 °F 37.4 °F 87% 30.00 in 10.0 mi SSE 5.8 mph - N/A   Clear
4:55 AM 41.0 °F 37.1 °F 37.4 °F 87% 30.00 in 10.0 mi SSE 5.8 mph - N/A   Clear
5:15 AM 41.0 °F 37.1 °F 37.4 °F 87% 30.01 in 10.0 mi SSE 5.8 mph - N/A   Clear
5:35 AM 41.0 °F 36.4 °F 37.4 °F 87% 30.01 in 10.0 mi South 6.9 mph - N/A   Clear
5:55 AM 41.0 °F 36.4 °F 37.4 °F 87% 30.00 in 10.0 mi SSE 6.9 mph - N/A   Clear
6:15 AM 41.0 °F 37.1 °F 37.4 °F 87% 30.00 in 10.0 mi SSE 5.8 mph - N/A   Clear
6:35 AM 41.0 °F 36.4 °F 37.4 °F 87% 30.01 in 10.0 mi SSE 6.9 mph - N/A   Clear
6:55 AM 41.0 °F 36.4 °F 37.4 °F 87% 30.01 in 10.0 mi SSE 6.9 mph - N/A   Clear
7:15 AM 41.0 °F 36.4 °F 37.4 °F 87% 30.01 in 10.0 mi SSE 6.9 mph - N/A   Clear
7:35 AM 41.0 °F 36.4 °F 37.4 °F 87% 30.01 in 10.0 mi SSE 6.9 mph - N/A   Clear
7:55 AM 41.0 °F 36.4 °F 37.4 °F 87% 30.01 in 10.0 mi SSE 6.9 mph - N/A   Clear
8:15 AM 41.0 °F 37.1 °F 37.4 °F 87% 30.01 in 10.0 mi SSE 5.8 mph - N/A   Clear
8:35 AM 44.6 °F 41.4 °F 39.2 °F 81% 30.02 in 10.0 mi SSE 5.8 mph - N/A   Clear
8:55 AM 44.6 °F 43.1 °F 41.0 °F 87% 30.02 in 10.0 mi SSE 3.5 mph - N/A   Clear
9:15 AM 48.2 °F - 41.0 °F 76% 30.03 in 10.0 mi South 8.1 mph - N/A   Clear
9:35 AM 51.8 °F - 41.0 °F 67% 30.03 in 10.0 mi South 6.9 mph - N/A   Clear
9:55 AM 51.8 °F - 41.0 °F 67% 30.02 in 10.0 mi South 6.9 mph - N/A   Clear
10:15 AM 53.6 °F - 41.0 °F 62% 30.03 in 10.0 mi SSW 11.5 mph - N/A   Clear
10:35 AM 55.4 °F - 42.8 °F 63% 30.02 in 10.0 mi SSW 12.7 mph - N/A   Clear
10:55 AM 57.2 °F - 42.8 °F 59% 30.02 in 10.0 mi SSW 13.8 mph - N/A   Clear
11:15 AM 59.0 °F - 42.8 °F 55% 30.02 in 10.0 mi SSW 11.5 mph - N/A   Clear
11:35 AM 60.8 °F - 41.0 °F 48% 30.01 in 10.0 mi SSW 16.1 mph 19.6 mph N/A   Clear
11:55 AM 62.6 °F - 41.0 °F 45% 30.00 in 10.0 mi SSW 13.8 mph 19.6 mph N/A   Clear
12:15 PM 62.6 °F - 37.4 °F 39% 30.00 in 10.0 mi SSW 16.1 mph 20.7 mph N/A   Clear
12:35 PM 64.4 °F - 37.4 °F 37% 29.99 in 10.0 mi South 18.4 mph 23.0 mph N/A   Clear
12:55 PM 64.4 °F - 37.4 °F 37% 29.98 in 10.0 mi SSW 18.4 mph 23.0 mph N/A   Clear
1:15 PM 66.2 °F - 37.4 °F 35% 29.97 in 10.0 mi SSW 16.1 mph - N/A   Clear
1:35 PM 68.0 °F - 35.6 °F 30% 29.96 in 10.0 mi South 17.3 mph 23.0 mph N/A   Clear
1:55 PM 68.0 °F - 37.4 °F 33% 29.95 in 10.0 mi SSW 19.6 mph 25.3 mph N/A   Clear
2:15 PM 68.0 °F - 37.4 °F 33% 29.93 in 10.0 mi South 18.4 mph 23.0 mph N/A   Clear
2:35 PM 68.0 °F - 37.4 °F 33% 29.93 in 10.0 mi South 15.0 mph 20.7 mph N/A   Clear
2:55 PM 68.0 °F - 41.0 °F 37% 29.92 in 10.0 mi South 17.3 mph 20.7 mph N/A   Clear
3:15 PM 68.0 °F - 37.4 °F 33% 29.91 in 10.0 mi South 18.4 mph 24.2 mph N/A   Clear
3:35 PM 68.0 °F - 37.4 °F 33% 29.90 in 10.0 mi SSW 17.3 mph 21.9 mph N/A   Clear
3:55 PM 68.0 °F - 37.4 °F 33% 29.89 in 10.0 mi South 13.8 mph 24.2 mph N/A   Clear
4:15 PM 68.0 °F - 37.4 °F 33% 29.89 in 10.0 mi South 17.3 mph - N/A   Clear
4:35 PM 68.0 °F - 37.4 °F 33% 29.89 in 10.0 mi SSW 17.3 mph 20.7 mph N/A   Clear
4:55 PM 68.0 °F - 37.4 °F 33% 29.89 in 10.0 mi South 12.7 mph - N/A   Clear
5:15 PM 68.0 °F - 37.4 °F 33% 29.89 in 10.0 mi SSW 10.4 mph - N/A   Clear
5:35 PM 66.2 °F - 37.4 °F 35% 29.89 in 10.0 mi South 12.7 mph 16.1 mph N/A   Clear
5:55 PM 64.4 °F - 41.0 °F 42% 29.90 in 10.0 mi South 10.4 mph - N/A   Clear
6:15 PM 64.4 °F - 39.2 °F 40% 29.89 in 10.0 mi South 10.4 mph - N/A   Clear
6:35 PM 60.8 °F - 41.0 °F 48% 29.90 in 10.0 mi South 8.1 mph - N/A   Clear
6:55 PM 59.0 °F - 41.0 °F 51% 29.90 in 10.0 mi South 5.8 mph - N/A   Clear
7:15 PM 55.4 °F - 41.0 °F 58% 29.91 in 10.0 mi South 5.8 mph - N/A   Scattered Clouds
7:35 PM 55.4 °F - 41.0 °F 58% 29.92 in 10.0 mi South 5.8 mph - N/A   Scattered Clouds
7:55 PM 55.4 °F - 42.8 °F 63% 29.93 in 10.0 mi SSE 3.5 mph - N/A   Overcast
8:15 PM 57.2 °F - 42.8 °F 59% 29.94 in 10.0 mi South 4.6 mph - N/A   Overcast
8:35 PM 55.4 °F - 42.8 °F 63% 29.95 in 10.0 mi South 4.6 mph - N/A   Scattered Clouds
8:55 PM 53.6 °F - 42.8 °F 67% 29.96 in 10.0 mi South 4.6 mph - N/A   Clear
9:15 PM 53.6 °F - 42.8 °F 67% 29.97 in 10.0 mi South 4.6 mph - N/A   Clear
9:35 PM 51.8 °F - 42.8 °F 71% 29.97 in 10.0 mi South 4.6 mph - N/A   Scattered Clouds
9:55 PM 51.8 °F - 42.8 °F 71% 29.98 in 10.0 mi South 3.5 mph - N/A   Scattered Clouds
10:15 PM 51.8 °F - 42.8 °F 71% 29.98 in 10.0 mi South 6.9 mph - N/A   Mostly Cloudy
10:35 PM 51.8 °F - 44.6 °F 76% 29.98 in 10.0 mi SSE 5.8 mph - N/A   Overcast
10:55 PM 53.6 °F - 44.6 °F 72% 29.99 in 10.0 mi SSE 5.8 mph - N/A   Mostly Cloudy
11:15 PM 53.6 °F - 44.6 °F 72% 29.98 in 10.0 mi SSE 4.6 mph - N/A   Mostly Cloudy
11:35 PM 55.4 °F - 44.6 °F 67% 29.98 in 10.0 mi South 5.8 mph - N/A   Mostly Cloudy
11:55 PM 53.6 °F - 44.6 °F 72% 29.98 in 10.0 mi SSE 5.8 mph - N/A   Scattered Clouds